Location: ?
(35.3544°N, 139.4507°E)
Time: 06:32:36
(UTC+00:00)

SJ 16-02 - Pass Details

Date: 03 August 2024
Orbit: 593 x 604 km, 75.0° (Epoch: 10 September)

Event Time Altitude Azimuth Distance (km) Brightness Sun altitude
Rises 13:32:13 0° 344° (NNW) 2,863 5.8 -34.4°
Reaches altitude 10° 13:34:28 10° 344° (NNW) 1,954 4.7 -34.5°
Enters shadow 13:35:51 20° 345° (NNW) 1,408 3.8 -34.6°
